Regional Weather Roundup
Issued by NWS

Home | Current Version | Previous Version | Graphics & Text | Print | Product List | Glossary On
Versions: 1 2 3 4 5 6 7 8 9 10 11 12 13 14 15 16 17 18 19 20 21 22 23 24 25 26 27 28
000
ASUS45 KCYS 312010
RWRWY

WYOMING REGIONAL WEATHER ROUNDUP
NATIONAL WEATHER SERVICE CHEYENNE WY
200 PM MDT FRI OCT 31 2014

NOTE:  "FAIR" INDICATES FEW OR NO CLOUDS BELOW 12,000 FEET
WITH NO SIGNIFICANT WEATHER AND/OR OBSTRUCTIONS TO VISIBILITY.

WYZ001-312100-
YELLOWSTONE NATIONAL PARK

CITY           SKY/WX    TMP DP  RH WIND       PRES   REMARKS
LK YELLOWSTONE   N/A     55  25  31 VRB3      30.06F
W YELLOWSTONE  NOT AVBL

$$
WYZ002>013-054>058-071-098>099-312100-
NORTHERN WYOMING

CITY           SKY/WX    TMP DP  RH WIND       PRES   REMARKS
JACKSON        SUNNY     59  28  31 CALM      30.01
CODY           CLOUDY    55  36  47 NE6       29.91F
GREYBULL       PTSUNNY   66  27  23 S7        29.88F
WORLAND        MOSUNNY   69  26  20 SW7       29.89F
SHERIDAN       CLOUDY    49  31  49 W7        29.89F
BUFFALO        CLOUDY    58  28  32 SE15      29.90F
GILLETTE       PTSUNNY   51  32  48 S29G37    29.96F
HULETT         FAIR      59  30  33 S16G24    30.00
NEWCASTLE      FAIR      50  30  46 SE26G32   30.08

$$
WYZ014>020-022>026-101>103-312100-
CENTRAL WYOMING

CITY           SKY/WX    TMP DP  RH WIND       PRES   REMARKS
BIG PINEY      SUNNY     60  23  24 SW8       30.07F
PINEDALE       CLEAR     59  23  25 S13       30.08F
DUBOIS         FAIR      59  21  23 W14G25    30.03F
LANDER         MOSUNNY   58  28  32 CALM      29.98F
RIVERTON       SUNNY     56  25  30 CALM      30.01F
CASPER         MOSUNNY   67  25  20 SW15      30.01F
DOUGLAS        PTSUNNY   53  30  41 SE22G32   30.05F

$$
WYZ021-027>030-104>119-312100-
SOUTHERN WYOMING

CITY           SKY/WX    TMP DP  RH WIND       PRES   REMARKS
EVANSTON       MOSUNNY   64  18  17 SW20G26   30.04F
KEMMERER       CLEAR     61  23  23 S3        30.07F
FORT BRIDGER   FAIR      60  26  26 E3        30.09F
ROCK SPRINGS   MOSUNNY   60  27  28 CALM      30.07F
DIXON          FAIR      66  24  20 W14G20    30.15F
RAWLINS        MOSUNNY   65  21  18 SW24G33   30.10F
SARATOGA       FAIR      63  23  22 SW16      30.14S
LARAMIE        PTSUNNY   58  25  28 SE12      30.13F
CHEYENNE       PTSUNNY   48  28  46 S16G26    30.18F
TORRINGTON     MOSUNNY   56  31  38 S22G31    30.13F
PINE BLUFFS    FAIR      52  30  43 S18G30    30.19F

$$



USA.gov is the U.S. government's official web portal to all federal, state and local government web resources and services.